Regional Weather Roundup
Issued by NWS Cleveland, OH

Home | Current Version | Previous Version | Graphics & Text | Print | Product List | Glossary On
Versions: 1 2 3 4 5 6 7 8 9 10 11 12 13 14 15 16 17 18 19 20 21 22 23 24 25 26 27 28 29 30 31 32 33 34 35 36 37 38 39 40 41 42 43 44 45 46 47 48 49 50
000
ASUS41 KCLE 040510
RWRCLE
OHIO REGIONAL WEATHER ROUNDUP
NATIONAL WEATHER SERVICE WILMINGTON, OH
1200 AM EST SUN DEC 04 2016

NOTE: "FAIR" INDICATES FEW OR NO CLOUDS BELOW 12,000 FEET WITH NO
SIGNIFICANT WEATHER AND/OR OBSTRUCTIONS TO VISIBILITY.

OHZ001>008-015>018-024>027-034-035-043-044-040600-
   NORTHWEST OHIO

CITY           SKY/WX    TMP DP  RH WIND       PRES   REMARKS
DEFIANCE       CLOUDY    35  28  75 CALM      30.29S
FINDLAY        CLOUDY    36  24  62 CALM      30.28S
TOLEDO EXPRESS CLOUDY    34  29  82 SW3       30.29F
TOLEDO EXEC    CLOUDY    36  29  75 S5        30.29F
LIMA           CLOUDY    32  27  81 E5        30.27S WCI  27
$$

OHZ009>014-019>023-028>033-038-089-040600-
   NORTHEAST OHIO

CITY           SKY/WX    TMP DP  RH WIND       PRES   REMARKS
CLE-HOPKINS    CLOUDY    37  26  64 SW5       30.31F
CLE-LAKEFRONT  CLOUDY    38  26  62 SW10      30.29F
CUY CO. ARPT   NOT AVBL
LORAIN-ELYRIA  CLOUDY    34  27  75 SW6       30.30F WCI  29
ASHTABULA      CLOUDY    35  32  88 W6        30.29R
AKRON-CANTON   CLOUDY    36  25  64 CALM      30.28F
WOOSTER        CLOUDY    34  26  72 CALM      30.29F
MANSFIELD      CLOUDY    34  27  75 CALM      30.27F
YOUNGSTOWN     CLOUDY    35  27  72 W6        30.26F
$$

OHZ042-051>053-060>062-070>072-077>081-040600-
  SOUTHWEST OHIO

CITY           SKY/WX    TMP DP  RH WIND       PRES   REMARKS
CINC-COVINGTON CLOUDY    36  29  75 CALM      30.27F
CINC-LUNKEN    MOCLDY    38  34  85 CALM      30.30F
HAMILTON       CLOUDY    31  28  89 CALM      30.29F
DAYTON         FAIR      33  26  75 SE6       30.27S WCI  28
WRIGHT-PAT AFB MOCLDY    32  28  84 E2        30.27F
DAYTON GENERAL FAIR      34  26  72 SE6       30.27S WCI  29
WILMINGTON     FAIR      31  27  85 SE3       30.28S
$$

OHZ036-037-039>041-045>050-054>059-063>069-073>076-082>088-040600-
  CENTRAL AND SOUTHEAST OHIO

CITY           SKY/WX    TMP DP  RH WIND       PRES   REMARKS
COLUMBUS       CLOUDY    36  29  75 E3        30.28F
OSU AIRPORT    CLOUDY    35  28  75 CALM      30.28F
BOLTON FIELD   MOCLDY    34  29  81 CALM      30.28F
RICKENBACK AFB CLOUDY    34  30  84 E3        30.28F
NEWARK         CLOUDY    35  28  75 CALM      30.28F
MARION         CLOUDY    33  26  75 E3        30.28F
LANCASTER      CLOUDY    34  30  85 CALM      30.29F
ZANESVILLE     CLOUDY    35  28  75 CALM      30.29F
NEW PHILLY     CLOUDY    35  30  82 CALM      30.30F
$$




USA.gov is the U.S. government's official web portal to all federal, state and local government web resources and services.